Regional Weather Roundup
Issued by NWS

Home | Current Version | Previous Version | Text Only | Print | Product List | Glossary Off
Versions: 1 2 3 4 5 6 7 8 9 10 11 12 13 14 15 16 17 18 19 20 21 22 23 24 25 26 27 28 29 30 31 32 33 34 35 36 37 38 39 40 41 42 43 44 45 46 47 48 49 50

000
ASUS43 KFSD 240202
RWRSD

WEATHER ROUNDUP FOR SOUTH DAKOTA
NATIONAL WEATHER SERVICE SIOUX FALLS SD
900 PM CDT SAT MAY 23 2015

NOTE: "FAIR" INDICATES FEW OR NO CLOUDS BELOW 12,000 FEET WITH NO
SIGNIFICANT WEATHER AND/OR OBSTRUCTIONS TO VISIBILITY.


SDZ001>005-009-010-012>017-240300-
NORTHWEST AND NORTH CENTRAL SOUTH DAKOTA

CITY           SKY/WX    TMP DP  RH WIND       PRES   REMARKS
FAITH            N/A     56  48  74 E9        30.06S
MOBRIDGE       CLOUDY    59  54  83 E6        30.06S
$$

SDZ012>016-024>037-041>051-057-063-072>074-240300-
SOUTHWEST AND SOUTH CENTRAL SOUTH DAKOTA

CITY           SKY/WX    TMP DP  RH WIND       PRES   REMARKS
RAPID CTY ARPT LGT RAIN  54  53  97 E12       30.02S FOG
PIERRE         CLOUDY    60  53  77 SE14      30.04S
CUSTER         LGT RAIN  48  46  93 NE13      30.03F FOG
ELLSWORTH AFB  DRIZZLE   55  54  97 E12       30.02  FOG
PHILIP         CLOUDY    58  53  84 E10       30.03S
PINE RIDGE     CLOUDY    54  52  93 E10       29.98S
WINNER         LGT RAIN  57  54  89 E8        30.05S FOG
$$

SDZ004>011-016>023-039-040-240300-
NORTHEAST SOUTH DAKOTA

CITY           SKY/WX    TMP DP  RH WIND       PRES   REMARKS
ABERDEEN       CLOUDY    63  51  65 SE6       30.09R
WATERTOWN      CLOUDY    63  49  60 NE8       30.09S
BROOKINGS      CLOUDY    64  52  63 CALM      30.09S
$$

SDZ017-020-022-023-036>040-048>070-240300-
SOUTHEAST SOUTH DAKOTA

CITY           SKY/WX    TMP DP  RH WIND       PRES   REMARKS
SIOUX FALLS    CLOUDY    63  54  72 SW3       30.08R
HURON          MOCLDY    63  53  70 CALM      30.07F
CHAMBERLAIN    CLOUDY    57  55  92 E5        30.06S
MITCHELL       CLOUDY    62  54  74 CALM      30.06F
YANKTON        CLOUDY    59  54  82 CALM      30.06S
$$

ABBREVIATIONS USED IN REMARKS
   TC - TEMPERATURE IN CELSIUS
  WCI - WIND CHILL INDEX
   HX - HEAT INDEX
  VSB - VISIBILITY



USA.gov is the U.S. government's official web portal to all federal, state and local government web resources and services.